Regional Weather Roundup
Issued by NWS Sterling, VA

Home | Current Version | Previous Version | Graphics & Text | Print | Product List | Glossary On
Versions: 1 2 3 4 5 6 7 8 9 10 11 12 13 14 15 16 17 18 19 20 21 22 23 24 25 26 27 28 29 30 31 32 33 34 35 36 37 38 39 40 41 42 43 44 45 46 47 48 49 50
000
ASUS41 KLWX 100611
RWRLWX

REGIONAL WEATHER ROUNDUP
NATIONAL WEATHER SERVICE BALTIMORE MD/WASHINGTON DC
100 AM EST SUN DEC 10 2017

Note: "FAIR" indicates few or no clouds below 12,000 feet
with no significant weather and/or obstructions to visibility.
 TC=TEMPERATURE CELSIUS

 * =Non NWS site. Station does not report precipitation (e.g. rain,
    snow, etc.), thunder, or fog.

DCZ001-MDZ009-015-VAZ040>042-051-053>054-100700-
WASHINGTON METRO

CITY           SKY/WX    TMP DP  RH WIND       PRES   REMARKS
WASHINGTON NAT CLOUDY    31  29  92 SW6       29.88R
DULLES         CLOUDY    26  26 100 S3        29.87R FOG
ANDREWS AFB    CLOUDY    30  28  93 W9        29.85R WCI  22
FT BELVOIR     CLOUDY    31  29  90 W3        29.88S
QUANTICO       CLOUDY    33  32  96 W9        29.90R WCI  25
COLLEGE PARK*  PTCLDY    30  27  88 CALM      29.86S
LEESBURG*      CLOUDY    28  28 100 SW3       29.87R
MANASSAS*      CLOUDY    30  29  96 CALM      29.88S
GAITHERSBURG*  PTCLDY    25  23  92 W6        29.84S FOG

$$

MDZ006>007-011-014-100700-
BALTIMORE METRO

CITY           SKY/WX    TMP DP  RH WIND       PRES   REMARKS
BWI AIRPORT    CLOUDY    29  27  92 W7        29.84F FOG
MD SCIENCE CTR   N/A     31  26  82 MISG      29.84F
MARTIN STATE   CLOUDY    32  30  93 SW5       29.86S
ANNAPOLIS      MOCLDY    31  31 100 W5        29.85S FOG
FORT MEADE*    MOCLDY    28  28 100 W3        29.88S

$$

MDZ012-015-019>023-100700-
MARYLAND EASTERN SHORE

CITY           SKY/WX    TMP DP  RH WIND       PRES   REMARKS
OCEAN CITY     CLOUDY    31  30  96 NW9       29.85R WCI  23
SALISBURY      CLOUDY    32  31  96 W7        29.84S
BAY BRIDGE AP* PTCLDY    32  28  86 MISG      29.85S FOG
CAMBRIDGE*     CLOUDY    30  30 100 CALM      29.86S
EASTON*        PTCLDY    32  29  88 W3        29.88S

$$

MDZ017>025-100700-
SOUTHERN MARYLAND

CITY           SKY/WX    TMP DP  RH WIND       PRES   REMARKS
PATUXENT RIVER PTCLDY    29  29 100 W8        29.87R WCI  21
ST INIGOES     MOCLDY    34  31  88 W8        29.87R WCI  27
LEONARDTOWN*   PTCLDY    30  28  93 NW7       29.88S

$$

MDZ003>005-100700-
NORTH CENTRAL MARYLAND

CITY           SKY/WX    TMP DP  RH WIND       PRES   REMARKS
FREDERICK*     CLOUDY    28  28 100 S3        29.88S
HAGERSTOWN APT MOCLDY    31  23  72 W5        29.83S
WESTMINSTER*   MOCLDY    25  25 100 SW6       29.80F FOG

$$

MDZ501>502-100700-
WESTERN MARYLAND

CITY           SKY/WX    TMP DP  RH WIND       PRES   REMARKS
OAKLAND*       CLOUDY    21  19  93 W9G21     29.71S WCI  11
CUMBERLAND*    CLOUDY    34  19  55 W7        29.89R

$$

VAZ025>031-100700-
SHENANDOAH VALLEY

CITY           SKY/WX    TMP DP  RH WIND       PRES   REMARKS
WINCHESTER*    CLOUDY    30  27  86 CALM      29.84S
FRONT ROYAL*   CLOUDY    30  28  93 MISG      29.84S
LURAY*         CLOUDY    32  28  86 W5        29.85R
NEW MARKET*    CLOUDY    29  28  96 W3        29.85R
STAUNTON*      CLOUDY    28  25  89 CALM      29.87R
WAYNESBORO*    CLOUDY    30  21  69 W3        29.84S

$$

WVZ021-048>050-054>055-100700-
EASTERN WEST VIRGINIA PANHANDLE

CITY           SKY/WX    TMP DP  RH WIND       PRES   REMARKS
MARTINSBURG    CLOUDY    31  22  69 NW6       29.83S
PETERSBURG*    CLOUDY    32  19  58 W9G16     29.86R WCI  24

$$

VAZ036>039-050-100700-
CENTRAL FOOTHILLS

CITY           SKY/WX    TMP DP  RH WIND       PRES   REMARKS
CHARLOTTESVILL CLOUDY    33  32  96 SW3       29.86R
CULPEPER*      CLOUDY    32  31  95 CALM      29.89R FOG
ORANGE*        CLOUDY    32  32 100 CALM      29.87R
GORDONSVILLE*  CLOUDY    32  32 100 CALM      29.87R
WARRENTON*     CLOUDY    32  29  90 CALM      29.87S FOG

$$

VAZ055>057-100700-
NORTH AND CENTRAL PIEDMONT

CITY           SKY/WX    TMP DP  RH WIND       PRES   REMARKS
FREDERICKSBRG* CLOUDY    33  33 100 W3        29.88S
STAFFORD*      CLOUDY    31  31 100 CALM      29.92R

$$

NCZ024-NYZ072-PAZ021-071-VAZ022-071-100700-
OTHER REGIONAL OBSERVATIONS

CITY           SKY/WX    TMP DP  RH WIND       PRES   REMARKS
NEW YORK CITY  CLOUDY    31  28  89 VRB5      29.74F FOG
PHILADELPHIA   CLOUDY    32  27  81 W8        29.81R WCI  25
PITTSBURGH     CLOUDY    30  21  69 W12G17    29.86R WCI  20
ROANOKE        PTCLDY    32  17  54 NW16G29   29.93R WCI  21
RICHMOND       CLOUDY    33  31  92 SW9       29.89S WCI  25
RALEIGH        PTCLDY    31  30  96 W6        29.96R FOG

$$

ANZ530>537-100700-
MARINE OBSERVATIONS

STATION/POSITION TIME  TEMP    WIND        PRES
                       AIR SEA DIR/SP/G
                 (UTC) (F)     (DEG/KT/KT) (MB)
THOMAS PT LIGHT  0600   32 48  270/ 13/ 14   N/A
BALT KEY BRIDGE  0542          250/  9/ 11 1010.7S
COVE POINT       0542          300/  8/ 11 1011.6S
LEWISETTA        0542      45  290/  7/  9 1011.8R
SOLOMONS ISLAND  0542      49  270/  7/  9 1011.1R
PINEY POINT      0542          300/  9/ 12   N/A

$$




USA.gov is the U.S. government's official web portal to all federal, state and local government web resources and services.